www.pogodaiklimat.ru

Погода и климат >> Архив погоды >> Китай >> Lu Shan


ПОГОДА в Lu Shan

  • Прогноз погоды в Lu Shan
  • Монитор погоды в Lu Shan
  • Климат города

АРХИВ ПОГОДЫ в Lu Shan

Время (UTC), дата Ветер
(напр.,м/с)
 
Видим.   Явления Облачность Т
(С)
Тd
(С)
f
(%)
Тe
(С)
Тes
(С)
Комфортность P
(гПа)
Po
(гПа)
Тmin
(С)
Tmax
(С)
R
(мм)
R24
(мм)
S
(см)
21 16.06 СВ 6 16 км ?/? +14.0 +10.6 80 +12 +12 1008.0 1008.0
00 17.06 С 6 11 км ясно +18.2 +15.1 82 +18 +21 1008.4 880.2
03 17.06 С 3 6000 м дымка 9/9
[]
+17.6 +16.1 91 +18 +19 1009.2 837.4
06 17.06 Ю 1 10 км 9/9 100 м
[]
+18.7 +15.8 83 +21 +23 комфорт 1008.4 880.0 +13.5
09 17.06 штиль 0 10 км 9/9 100 м
[]
+19.4 +17.0 86 +21 +22 комфорт 1007.8 1008.0
12 17.06 В 3 15 км 9/9 100 м
[]
+16.7 +16.7 100 +16 +16 1008.4 880.4
18 17.06 Ю 5 12 км ?/? +16.6 +16.6 100 +16 +16 1007.7 1008.0 +21.9
21 17.06 Ю 2 17 км ?/? +16.7 +16.7 100 +17 +17 1007.5 1008.0
00 18.06 Ю 4 19 км 9/9 300 м
[]
+18.4 +17.4 94 +19 +19 1008.1 880.2
03 18.06 С 1 6000 м 9/9 100 м
[]
+20.8 +19.3 91 +26 +29 душно 1008.1 837.5
06 18.06 С 2 15 км 9/9 300 м
[]
+20.8 +19.1 90 +26 +28 душно 1007.3 880.0 +16.3
09 18.06 С 1 16 км 9/9 300 м
[]
+20.2 +18.9 92 +25 +25 комфорт 1006.6 1007.0
12 18.06 ЮВ 3 21 км 9/9 300 м
[]
+17.3 +17.1 99 +17 +17 1007.2 1007.0
18 18.06 Ю 2 21 км {туман} ?/? +17.3 +17.1 99 +18 +18 1006.0 1006.0 +21.5
21 18.06 Ю 1 24 км ?/? +17.7 +16.9 95 +19 +19 1006.0 1006.0
00 19.06 С 1 20 км 9/9 300 м
[]
+19.7 +17.8 89 +23 +24 комфорт 1006.7 1007.0
03 19.06 С 2 18 км {дождь} 9/9 300 м
[]
+22.4 +18.8 80 +28 +30 душно 1006.3 1006.0
06 19.06 С 3 14 км {дождь} 9/9 300 м
[]
+23.3 +20.1 82 +30 +32 очень
душно
1005.2 1005.0 +16.5 0.0
09 19.06 С 2 13 км 9/9 300 м
[]
+20.1 +18.9 93 +24 +25 комфорт 1005.4 1005.0
12 19.06 Ю 2 17 км в посл. час дождь 10/10 300 м
[]
+18.6 +15.7 83 +20 +20 1005.6 1006.0 0.0
18 19.06 ЮЗ 1 13 км {туман} ?/? +17.9 +17.6 98 +19 +19 1004.1 1004.0 +23.4
21 19.06 Ю 1 14 км ?/? +18.1 +17.0 93 +19 +19 1004.5 1005.0
00 20.06 штиль 0 13 км 8/8
[]
+20.1 +18.1 88 +23 +25 комфорт 1005.7 878.8 0.0
03 20.06 З 2 12 км 9/9 100 м
[]
+22.5 +16.8 70 +27 +29 душно 1005.7 836.3
06 20.06 С 2 12 км 9/9 100 м
[]
+25.3 +20.1 73 +31 +33 очень
душно
1003.8 878.1 +17.7
09 20.06 штиль 0 12 км 9/9 100 м
[]
+21.9 +19.6 87 +27 +28 душно 1003.6 1004.0
12 20.06 ЮВ 1 11 км 9/9 100 м
[]
+19.8 +17.8 88 +24 +24 комфорт 1004.8 1005.0
18 20.06 Ю 2 6000 м ?/? +18.7 +18.5 99 +20 +20 1003.7 878.1 +25.7 0.6
21 20.06 ЮВ 1 7000 м дымка ?/? +18.1 +18.1 100 +19 +19 1004.7 1005.0
00 21.06 ЮВ 7 17 км слабый ливневой дождь 10/10 200 м
[]
+17.5 +13.6 78 +17 +17 1005.5 1026.9 1
03 21.06 ЮВ 11 14 км {ливн. осадки} 10/10 200 м
[]
+17.4 +16.1 92 +16 +16 1005.5 1006.0
06 21.06 ЮВ 10 14 км {ливн. осадки} 10/10 300 м
[]
+16.7 +15.9 95 +15 +15 1005.0 1005.0 +16.3 0.3
09 21.06 ЮВ 9 12 км слабый ливневой дождь 9/9 300 м
[]
+17.7 +17.4 98 +17 +17 1003.8 1004.0
12 21.06 СВ 1 16 км {ливн. осадки} 10/10 300 м
[]
+17.2 +17.2 100 +18 +18 1005.2 1005.0 0.0
18 21.06 ЮЗ 3 23 км {туман} ?/? +18.0 +18.0 100 +18 +18 1005.8 1006.0 +19.7
21 21.06 Ю 1 12 км ?/? +16.9 +16.9 100 +18 +18 1006.0 1006.0
00 22.06 ЮЗ 1 100 м туман ?/? +17.6 +17.6 100 +19 +19 1007.6 1008.0 0.1
03 22.06 Ю 1 9000 м {туман} ?/? +20.9 +20.1 95 +27 +27 душно 1008.0 1008.0
06 22.06 З 2 15 км {туман} 9/9 100 м
[]
+22.3 +19.5 84 +28 +30 душно 1007.0 1007.3 +16.6
09 22.06 З 1 12 км 9/9 100 м
[]
+21.2 +20.9 98 +27 +27 душно 1007.2 1007.0
12 22.06 Ю 4 17 км 9/9 100 м
[]
+19.4 +18.6 95 +22 +22 комфорт 1008.3 1008.0
18 22.06 Ю 4 16 км ?/? +21.0 +19.1 89 +26 +26 душно 1006.1 1006.0 +23.3
21 22.06 ЮЗ 3 100 м в посл. час туман ?/? +19.8 +19.8 100 +23 +23 комфорт 1006.4 1006.0
00 23.06 З 1 600 м слабый ливневой дождь ?/? +19.7 +19.7 100 +24 +24 комфорт 1006.9 1007.0 9
03 23.06 С 3 1900 м ливневой дождь {туман} ?/? +18.1 +18.1 100 +18 +18 1007.1 1007.0
06 23.06 С 2 10 км слабый ливневой дождь {туман} 10/10 100 м
[]
+18.7 +18.7 100 +20 +20 1005.8 1006.0 +17.8 49
09 23.06 Ю 2 1200 м слабый ливневой дождь {туман} ?/? +18.8 +18.8 100 +21 +21 комфорт 1004.7 1005.0
12 23.06 Ю 5 1100 м слабый ливневой дождь {туман} ?/? +18.9 +18.9 100 +20 +20 1005.2 1005.0 26
18 23.06 Ю 6 6000 м дымка {туман} ?/? +20.1 +20.1 100 +24 +24 комфорт 1002.3 1002.0 +20.9 9

 

Местоположение метеостанции Lu Shan (Китай): широта 29.58 долгота 115.98 высота над уровнем моря 1165 м.

В архиве по умолчанию представлена погода в Lu Shan за последнюю неделю. Архивные данные за месяц целиком и за предыдущие месяцы, начиная с января 2011 года, Вы можете получить, выбрав интересующий диапазон дат из раскрывающегося списка и нажав кнопку "Ввод!".

Внимание! Время в таблицах - всемирное. Для получения местного времени необходимо прибавить поправку, которая в Lu Shan равна 8 ч.

Смотрите также архив погоды в соседних городах и на ближайших метеорологических станциях:

Погода в Nanchang (Китай) (109 км)
Погода в Jingdezhen (Китай) (122 км)
Погода в Anqing (Китай) (148 км)
Погода в Xiushui (Китай) (149 км)
Погода в Macheng (Китай) (203 км)
Погода в Huoshan (Китай) (205 км)
Погода в Wuhan (Китай) (212 км)
Погода в Huang Shan (Китай) (218 км)
Погода в Nancheng (Китай) (232 км)
Погода в Yichun (Китай) (252 км)

Пояснения к столбцам:

Ветер - указаны скорость ветра в м/с - средняя за 10 мин, порывы в срок и между сроками (в фигурных скобках) и направление, откуда дует ветер: С - северный, СВ - северо-восточный, В - восточный, ЮВ - юго-восточный, Ю - южный, ЮЗ - юго-западный, З - западный, СЗ - северо-западный.
Видимость - горизонтальная дальность видимости в метрах или километрах. При видимости от 1 до 10 км при отсутствии осадков обычно наблюдается дымка, при ухудшении видимости до 1 км и менее - туман. В сухую погоду видимость может ухудшаться дымом, пылью или мглою.
Явления - указаны атмосферные явления, наблюдавшиеся в срок или в последний час перед сроком; фигурными скобками обозначены явления, наблюдавшиеся между сроками (за 1-3 часа до срока); квадратными скобками обозначены град или гололедные отложения с указанием их диаметра в мм.
Облачность - указаны через наклонную черту общая и нижняя облачность в баллах и высота нижней границы облаков в метрах; квадратными скобками обозначены формы облаков: Ci - перистые, Cs - перисто-слоистые, Cc - перисто-кучевые, Ac - высококучевые, As - высокослоистые, Sc - слоисто-кучевые, Ns - слоисто-дождевые, Cu - кучевые, Cb - кучево-дождевые. Подробнее классификацию облаков см. в Атласе облаков (PDF).
T - Температура воздуха - температура, измеренная на высоте 2 м над землей.
Td - Температура точки росы - температура, при понижении до которой содержащийся в воздухе водяной пар достигнет насыщения.
f - Относительная влажность воздуха - влажноcть воздуха, измеренная на высоте 2 м над землей.
Te - Эффективная температура - температура, которую ощущает одетый по сезону человек в тени. Характеристика душности погоды. При расчете учитывается влияние влажности воздуха и скорости ветра на теплоощущения человека.
Tes - Эффективная температура на солнце - температура, которую ощущает человек, с поправкой на солнечный нагрев. Характеристика знойности погоды. Зависит от высоты солнца над горизонтом, облачности и скорости ветра. Ночью, в пасмурную погоду, а также при ветре 12 м/с и более поправка равна нулю.
P - Атмосферное давление - приведенное к уровню моря атмосферное давление.
Po - Атмосферное давление - измеренное на уровне метеостанции атмосферное давление.
Tmin - Минимальная температура - минимум температуры воздуха на высоте 2 м над землей.
Tmax - Максимальная температура - максимум температуры воздуха на высоте 2 м над землей.
R - Количество осадков - Количество выпавших осадков за период времени, мм. При наведении курсора мыши на число - период времени, за который выпало указанное количество осадков.
R24 - Количество осадков - Количество выпавших осадков за 24 часа, мм.
S - Снежный покров - Высота снежного покрова, см. При наведении курсора мыши на число - состояние снежного покрова и степень покрытия местности в баллах.